DW5444 Weather Reports


time (UTC)temp
C
wind
direction
speed
KPH
gust
KPH
rain 1hr
cm
rain 24hr
cm
rain mn
cm
humidity
%
barometer
mb
20260504000022 24 329 6.4 17.7 0.00 0.00 0.00 28 1009.0
20260503234522 24 316 8.0 16.1 0.00 0.00 0.00 30 1009.1
20260503233020 24 328 6.4 17.7 0.00 0.00 0.00 28 1009.2
20260503231520 24 310 3.2 16.1 0.00 0.00 0.00 31 1009.4
20260503230014 25 81 6.4 16.1 0.00 0.00 0.00 28 1009.7
20260503224513 25 312 4.8 11.3 0.00 0.00 0.00 31 1009.8
20260503223012 24 59 6.4 14.5 0.00 0.00 0.00 29 1010.0
20260503221509 24 301 8.0 14.5 0.00 0.00 0.00 31 1010.2
20260503220007 24 341 8.0 19.3 0.00 0.00 0.00 33 1010.4
20260503214508 25 47 6.4 22.5 0.00 0.00 0.00 30 1010.6
20260503213004 24 31 6.4 17.7 0.00 0.00 0.00 32 1010.6
20260503211602 24 59 11.3 16.1 0.00 0.00 0.00 30 1010.9
20260503210057 24 360 6.4 14.5 0.00 0.00 0.00 33 1011.0
20260503204602 23 6 6.4 16.1 0.00 0.00 0.00 33 1011.3
20260503203054 23 296 6.4 16.1 0.00 0.00 0.00 37 1011.4
20260503201551 23 47 8.0 16.1 0.00 0.00 0.00 36 1011.5
20260503200048 23 52 8.0 14.5 0.00 0.00 0.00 37 1011.7
20260503194547 22 360 8.0 17.7 0.00 0.00 0.00 40 1011.8
20260503193052 22 51 6.4 19.3 0.00 0.00 0.00 42 1012.0
20260503191543 21 308 6.4 12.9 0.00 0.00 0.00 44 1012.1
20260503190045 21 317 6.4 12.9 0.00 0.00 0.00 45 1012.2
20260503184536 21 342 6.4 20.9 0.00 0.00 0.00 46 1012.4
20260503183040 21 28 8.0 14.5 0.00 0.00 0.00 45 1012.4
20260503181532 21 335 4.8 16.1 0.00 0.00 0.00 46 1012.5
20260503180039 20 360 4.8 14.5 0.00 0.00 0.00 46 1012.5
20260503174529 20 26 8.0 17.7 0.00 0.00 0.00 46 1012.5
20260503173027 20 55 8.0 14.5 0.00 0.00 0.00 47 1012.7
20260503171534 20 21 8.0 17.7 0.00 0.00 0.00 49 1012.6
20260503140119 14 50 0.0 4.8 0.00 0.00 0.00 69 1012.8
20260503081534 12 59 3.2 4.8 0.00 0.00 0.00 75 1012.7
20260503071517 11 80 1.6 4.8 0.00 0.00 0.00 77 1012.7
20260503054507 15 59 0.0 6.4 0.00 0.00 0.00 60 1012.2
20260503053009 18 129 6.4 11.3 0.00 0.00 0.00 48 1012.1
20260503051506 17 75 8.0 11.3 0.00 0.00 0.00 53 1012.0
20260503050008 16 77 4.8 9.7 0.00 0.00 0.00 59 1012.0
20260503044508 16 55 4.8 9.7 0.00 0.00 0.00 56 1012.0
20260503043004 15 57 6.4 11.3 0.00 0.00 0.00 60 1011.9
20260503041503 15 81 4.8 8.0 0.00 0.00 0.00 61 1011.7
20260503040002 15 63 4.8 8.0 0.00 0.00 0.00 61 1011.5
20260503034503 15 42 4.8 6.4 0.00 0.00 0.00 60 1011.4
20260503033003 17 51 6.4 9.7 0.00 0.00 0.00 52 1011.1
20260503031601 17 72 6.4 9.7 0.00 0.00 0.00 53 1010.8
20260503030059 18 84 6.4 9.7 0.00 0.00 0.00 49 1010.6
20260503024605 18 66 6.4 9.7 0.00 0.00 0.00 48 1010.4
20260503023104 19 83 6.4 9.7 0.00 0.00 0.00 48 1010.3
20260503021601 20 78 6.4 9.7 0.00 0.00 0.00 47 1010.3
20260503020100 20 71 3.2 8.0 0.00 0.00 0.00 45 1010.4
20260503014623 21 43 6.4 9.7 0.00 0.00 0.00 44 1010.4
20260503013055 22 28 4.8 9.7 0.00 0.00 0.00 43 1010.4
20260503011611 22 43 6.4 14.5 0.00 0.00 0.00 44 1010.5
20260503010055 22 38 6.4 14.5 0.00 0.00 0.00 46 1010.6
20260503004559 22 59 11.3 17.7 0.00 0.00 0.00 45 1010.7
20260503003050 22 65 12.9 20.9 0.00 0.00 0.00 42 1010.8
20260503001554 22 58 12.9 24.1 0.00 0.00 0.00 41 1010.8